Time,TemperatureF,DewpointF,PressureIn,WindDirection,WindDirectionDegrees,WindSpeedMPH,WindSpeedGustMPH,Humidity,HourlyPrecipIn,Conditions,Clouds,dailyrainin,SoftwareType,DateUTC
2013-07-24 00:01:00,54.6,52.9,29.96,NNW,330,0.0,0.0,94,0.00,,SKC,0.00,VWS V14.01,2013-07-24 05:01:00,
2013-07-24 00:06:00,54.4,52.7,29.96,NNW,330,0.0,0.0,94,0.00,,SKC,0.00,VWS V14.01,2013-07-24 05:06:00,
2013-07-24 00:11:00,54.3,52.6,29.96,NNW,330,0.0,0.0,94,0.00,,SKC,0.00,VWS V14.01,2013-07-24 05:11:00,
2013-07-24 00:16:00,54.1,52.4,29.96,NNW,330,0.0,0.0,94,0.00,,SKC,0.00,VWS V14.01,2013-07-24 05:16:00,
2013-07-24 00:21:00,54.0,52.3,29.97,NNW,330,0.0,0.0,94,0.00,,SKC,0.00,VWS V14.01,2013-07-24 05:21:00,
2013-07-24 00:26:00,53.9,52.2,29.97,NNW,330,0.0,0.0,94,0.00,,SKC,0.00,VWS V14.01,2013-07-24 05:26:00,
2013-07-24 00:31:00,53.7,52.0,29.96,NNW,330,0.0,0.0,94,0.00,,SKC,0.00,VWS V14.01,2013-07-24 05:31:00,
2013-07-24 00:36:00,53.6,51.9,29.97,NNW,330,0.0,0.0,94,0.00,,SKC,0.00,VWS V14.01,2013-07-24 05:36:00,
2013-07-24 00:41:00,53.5,51.8,29.97,NNW,330,0.0,0.0,94,0.00,,SKC,0.00,VWS V14.01,2013-07-24 05:41:00,
2013-07-24 00:46:00,53.3,51.9,29.97,NNW,330,0.0,0.0,95,0.00,,SKC,0.00,VWS V14.01,2013-07-24 05:46:00,
2013-07-24 00:51:00,53.3,51.6,29.97,NNW,330,0.0,0.0,94,0.00,,SKC,0.00,VWS V14.01,2013-07-24 05:51:00,
2013-07-24 00:56:00,53.0,51.6,29.97,NNW,330,0.0,0.0,95,0.00,,SKC,0.00,VWS V14.01,2013-07-24 05:56:00,
2013-07-24 01:01:00,53.0,51.6,29.97,NNW,330,0.0,0.0,95,0.00,,SKC,0.00,VWS V14.01,2013-07-24 06:01:00,
2013-07-24 01:06:00,52.8,51.4,29.97,NNW,330,0.0,0.0,95,0.00,,SKC,0.00,VWS V14.01,2013-07-24 06:06:00,
2013-07-24 01:11:00,52.8,51.4,29.97,NNW,330,0.0,0.0,95,0.00,,SKC,0.00,VWS V14.01,2013-07-24 06:11:00,
2013-07-24 01:16:00,52.7,51.3,29.98,NNW,330,0.0,0.0,95,0.00,,SKC,0.00,VWS V14.01,2013-07-24 06:16:00,
2013-07-24 01:21:00,52.6,51.2,29.98,NNW,330,0.0,0.0,95,0.00,,SKC,0.00,VWS V14.01,2013-07-24 06:21:00,
2013-07-24 01:26:00,52.5,51.1,29.97,NNW,330,0.0,0.0,95,0.00,,SKC,0.00,VWS V14.01,2013-07-24 06:26:00,
2013-07-24 01:31:00,52.5,51.1,29.97,NNW,330,0.0,0.0,95,0.00,,SKC,0.00,VWS V14.01,2013-07-24 06:31:00,
2013-07-24 01:36:00,52.4,51.0,29.98,NNW,330,0.0,0.0,95,0.00,,SKC,0.00,VWS V14.01,2013-07-24 06:36:00,
2013-07-24 01:42:00,52.3,50.9,29.98,NNW,330,0.0,0.0,95,0.00,,SKC,0.00,VWS V14.01,2013-07-24 06:42:00,
2013-07-24 01:47:00,52.2,50.8,29.98,NNW,330,0.0,0.0,95,0.00,,SKC,0.00,VWS V14.01,2013-07-24 06:47:00,
2013-07-24 01:52:00,52.1,50.7,29.98,NNW,330,0.0,0.0,95,0.00,,SKC,0.00,VWS V14.01,2013-07-24 06:52:00,
2013-07-24 01:57:00,52.1,51.0,29.98,NNW,330,0.0,0.0,96,0.00,,SKC,0.00,VWS V14.01,2013-07-24 06:57:00,
2013-07-24 02:02:00,52.1,51.0,29.98,NNW,330,0.0,0.0,96,0.00,,SKC,0.00,VWS V14.01,2013-07-24 07:02:00,
2013-07-24 02:07:00,52.1,51.0,29.98,NNW,330,0.0,0.0,96,0.00,,SKC,0.00,VWS V14.01,2013-07-24 07:07:00,
2013-07-24 02:12:00,52.1,51.0,29.98,NNW,330,0.0,0.0,96,0.00,,SKC,0.00,VWS V14.01,2013-07-24 07:12:00,
2013-07-24 02:17:00,52.1,51.0,29.98,NNW,330,0.0,0.0,96,0.00,,SKC,0.00,VWS V14.01,2013-07-24 07:17:00,
2013-07-24 02:22:00,52.0,50.9,29.98,NNW,330,0.0,0.0,96,0.00,,SKC,0.00,VWS V14.01,2013-07-24 07:22:00,
2013-07-24 02:27:00,52.0,50.9,29.98,NNW,330,0.0,0.0,96,0.00,,SKC,0.00,VWS V14.01,2013-07-24 07:27:00,
2013-07-24 02:32:00,51.8,50.7,29.98,NNW,330,0.0,0.0,96,0.00,,SKC,0.00,VWS V14.01,2013-07-24 07:32:00,
2013-07-24 02:37:00,51.7,50.6,29.98,NNW,330,0.0,0.0,96,0.00,,SKC,0.00,VWS V14.01,2013-07-24 07:37:00,
2013-07-24 02:42:00,51.6,50.5,29.98,NNW,330,0.0,0.0,96,0.00,,SKC,0.00,VWS V14.01,2013-07-24 07:42:00,
2013-07-24 02:47:00,51.5,50.4,29.98,NNW,330,0.0,0.0,96,0.00,,SKC,0.00,VWS V14.01,2013-07-24 07:47:00,
2013-07-24 02:52:00,51.5,50.4,29.98,NNW,330,0.0,0.0,96,0.00,,SKC,0.00,VWS V14.01,2013-07-24 07:52:00,
2013-07-24 02:57:00,51.4,50.3,29.98,NNW,330,0.0,0.0,96,0.00,,SKC,0.00,VWS V14.01,2013-07-24 07:57:00,
2013-07-24 03:02:00,51.3,50.2,29.98,NNW,330,0.0,0.0,96,0.00,,SKC,0.00,VWS V14.01,2013-07-24 08:02:00,
2013-07-24 03:07:00,51.2,50.1,29.98,NNW,330,0.0,0.0,96,0.00,,SKC,0.00,VWS V14.01,2013-07-24 08:07:00,
2013-07-24 03:12:00,51.1,50.0,29.98,NNW,330,0.0,0.0,96,0.00,,SKC,0.00,VWS V14.01,2013-07-24 08:12:00,
2013-07-24 03:17:00,51.1,50.0,29.98,NNW,330,0.0,0.0,96,0.00,,SKC,0.00,VWS V14.01,2013-07-24 08:17:00,
2013-07-24 03:22:00,51.1,50.0,29.98,NNW,330,0.0,0.0,96,0.00,,SKC,0.00,VWS V14.01,2013-07-24 08:22:00,
2013-07-24 03:27:00,51.1,50.0,29.98,NNW,330,0.0,0.0,96,0.00,,SKC,0.00,VWS V14.01,2013-07-24 08:27:00,
2013-07-24 03:32:00,51.0,49.9,29.98,NNW,330,0.0,0.0,96,0.00,,SKC,0.00,VWS V14.01,2013-07-24 08:32:00,
2013-07-24 03:37:00,50.9,49.8,29.97,NNW,330,0.0,0.0,96,0.00,,SKC,0.00,VWS V14.01,2013-07-24 08:37:00,
2013-07-24 03:42:00,50.8,49.7,29.97,NNW,330,0.0,0.0,96,0.00,,SKC,0.00,VWS V14.01,2013-07-24 08:42:00,
2013-07-24 03:47:00,50.7,49.6,29.98,NNW,330,0.0,0.0,96,0.00,,SKC,0.00,VWS V14.01,2013-07-24 08:47:00,
2013-07-24 03:52:00,50.7,49.6,29.98,NNW,330,0.0,0.0,96,0.00,,SKC,0.00,VWS V14.01,2013-07-24 08:52:00,
2013-07-24 03:57:00,50.6,49.5,29.98,NNW,330,0.0,0.0,96,0.00,,SKC,0.00,VWS V14.01,2013-07-24 08:57:00,
2013-07-24 04:02:00,50.7,49.9,29.98,NNW,330,0.0,0.0,97,0.00,,SKC,0.00,VWS V14.01,2013-07-24 09:02:00,
2013-07-24 04:07:00,50.8,50.0,29.98,NNW,330,0.0,0.0,97,0.00,,SKC,0.00,VWS V14.01,2013-07-24 09:07:00,
2013-07-24 04:12:00,50.9,50.1,29.98,NNW,330,0.0,0.0,97,0.00,,SKC,0.00,VWS V14.01,2013-07-24 09:12:00,
2013-07-24 04:17:00,50.8,49.7,29.98,NNW,330,0.0,0.0,96,0.00,,SKC,0.00,VWS V14.01,2013-07-24 09:17:00,
2013-07-24 04:22:00,50.8,50.0,29.98,NNW,330,0.0,0.0,97,0.00,,SKC,0.00,VWS V14.01,2013-07-24 09:22:00,
2013-07-24 04:27:00,50.8,50.0,29.98,NNW,330,0.0,0.0,97,0.00,,SKC,0.00,VWS V14.01,2013-07-24 09:27:00,
2013-07-24 04:32:00,50.9,50.1,29.98,NNW,330,0.0,0.0,97,0.00,,SKC,0.00,VWS V14.01,2013-07-24 09:32:00,
2013-07-24 04:37:00,51.0,50.2,29.99,NNW,330,0.0,0.0,97,0.00,,SKC,0.00,VWS V14.01,2013-07-24 09:37:00,
2013-07-24 04:42:00,51.1,50.3,29.99,NNW,330,0.0,0.0,97,0.00,,SKC,0.00,VWS V14.01,2013-07-24 09:42:00,
2013-07-24 04:47:00,51.2,50.4,29.99,NNW,330,0.0,0.0,97,0.00,,SKC,0.00,VWS V14.01,2013-07-24 09:47:00,
2013-07-24 04:52:00,51.5,50.7,29.99,NNW,330,0.0,0.0,97,0.00,,SKC,0.00,VWS V14.01,2013-07-24 09:52:00,
2013-07-24 04:57:00,51.9,51.1,29.99,NNW,330,0.0,0.0,97,0.00,,SKC,0.00,VWS V14.01,2013-07-24 09:57:00,
2013-07-24 05:02:00,52.2,51.7,29.99,NNW,330,0.0,0.0,98,0.00,,SKC,0.00,VWS V14.01,2013-07-24 10:02:00,
2013-07-24 05:07:00,52.4,51.6,29.99,NNW,330,0.0,0.0,97,0.00,,SKC,0.00,VWS V14.01,2013-07-24 10:07:00,
2013-07-24 05:12:00,52.7,51.9,29.99,NNW,330,0.0,0.0,97,0.00,,SKC,0.00,VWS V14.01,2013-07-24 10:12:00,
2013-07-24 05:17:00,52.8,52.2,29.99,NNW,330,0.0,0.0,98,0.00,,SKC,0.00,VWS V14.01,2013-07-24 10:17:00,
2013-07-24 05:22:00,53.0,52.2,29.99,NNW,330,0.0,0.0,97,0.00,,SKC,0.00,VWS V14.01,2013-07-24 10:22:00,
2013-07-24 05:27:00,53.1,52.3,29.99,NNW,330,0.0,0.0,97,0.00,,SKC,0.00,VWS V14.01,2013-07-24 10:27:00,
2013-07-24 05:32:00,53.3,52.5,29.99,NNW,330,0.0,0.0,97,0.00,,SKC,0.00,VWS V14.01,2013-07-24 10:32:00,
2013-07-24 05:37:00,53.4,52.8,29.99,NNW,330,0.0,0.0,98,0.00,,SKC,0.00,VWS V14.01,2013-07-24 10:37:00,
2013-07-24 05:42:00,53.6,53.0,29.99,NNW,330,0.0,0.0,98,0.00,,SKC,0.00,VWS V14.01,2013-07-24 10:42:00,
2013-07-24 05:47:00,53.7,52.9,29.99,NNW,330,0.0,0.0,97,0.00,,SKC,0.00,VWS V14.01,2013-07-24 10:47:00,
2013-07-24 05:52:00,53.8,53.0,29.99,NNW,330,0.0,0.0,97,0.00,,SKC,0.00,VWS V14.01,2013-07-24 10:52:00,
2013-07-24 05:57:00,53.9,53.1,29.99,NNW,330,0.0,0.0,97,0.00,,SKC,0.00,VWS V14.01,2013-07-24 10:57:00,
2013-07-24 06:02:00,54.0,53.2,29.99,NNW,330,0.0,0.0,97,0.00,,SKC,0.00,VWS V14.01,2013-07-24 11:02:00,
2013-07-24 06:07:00,54.1,53.3,29.99,NNW,330,0.0,0.0,97,0.00,,SKC,0.00,VWS V14.01,2013-07-24 11:07:00,
2013-07-24 06:12:00,54.2,53.7,30.00,NNW,330,0.0,0.0,98,0.00,,SKC,0.00,VWS V14.01,2013-07-24 11:12:00,
2013-07-24 06:17:00,54.4,53.6,29.99,NNW,330,0.0,0.0,97,0.00,,SKC,0.00,VWS V14.01,2013-07-24 11:17:00,
2013-07-24 06:22:00,54.5,53.7,30.00,NNW,330,0.0,0.0,97,0.00,,SKC,0.00,VWS V14.01,2013-07-24 11:22:00,
2013-07-24 06:27:00,54.7,54.2,30.00,NNW,330,0.0,0.0,98,0.00,,SKC,0.00,VWS V14.01,2013-07-24 11:27:00,
2013-07-24 06:32:00,54.9,54.3,30.00,NNW,330,0.0,0.0,98,0.00,,SKC,0.00,VWS V14.01,2013-07-24 11:32:00,
2013-07-24 06:37:00,55.1,54.5,30.00,NNW,330,0.0,0.0,98,0.00,,SKC,0.00,VWS V14.01,2013-07-24 11:37:00,
2013-07-24 06:42:00,55.3,54.8,30.00,NNW,330,0.0,0.0,98,0.00,,SKC,0.00,VWS V14.01,2013-07-24 11:42:00,
2013-07-24 06:47:00,55.5,55.0,30.00,NNW,330,0.0,0.0,98,0.00,,SKC,0.00,VWS V14.01,2013-07-24 11:47:00,
2013-07-24 06:52:00,55.6,54.8,30.00,NNW,330,0.0,0.0,97,0.00,,SKC,0.00,VWS V14.01,2013-07-24 11:52:00,
2013-07-24 06:57:00,55.8,55.0,30.00,NNW,330,0.0,0.0,97,0.00,,SKC,0.00,VWS V14.01,2013-07-24 11:57:00,
2013-07-24 07:02:00,55.9,55.1,30.00,NNW,330,0.0,0.0,97,0.00,,SKC,0.00,VWS V14.01,2013-07-24 12:02:00,
2013-07-24 07:07:00,56.1,55.3,30.01,NNW,330,0.0,0.0,97,0.00,,SKC,0.00,VWS V14.01,2013-07-24 12:07:00,
2013-07-24 07:12:00,56.3,55.5,30.01,NNW,330,0.0,0.0,97,0.00,,SKC,0.00,VWS V14.01,2013-07-24 12:12:00,
2013-07-24 07:17:00,56.4,55.6,30.01,NNW,330,0.0,1.0,97,0.00,,SKC,0.00,VWS V14.01,2013-07-24 12:17:00,
2013-07-24 07:22:00,56.6,55.5,30.01,NNW,330,0.0,1.0,96,0.00,,SKC,0.00,VWS V14.01,2013-07-24 12:22:00,
2013-07-24 07:27:00,56.8,55.4,30.01,NNW,330,0.0,1.0,95,0.00,,SKC,0.00,VWS V14.01,2013-07-24 12:27:00,
2013-07-24 07:32:00,57.0,55.6,30.01,NNW,330,0.0,0.0,95,0.00,,SKC,0.00,VWS V14.01,2013-07-24 12:32:00,
2013-07-24 07:37:00,57.2,55.8,30.01,NNW,330,0.0,0.0,95,0.00,,SKC,0.00,VWS V14.01,2013-07-24 12:37:00,
2013-07-24 07:42:00,57.4,55.7,30.01,NNW,330,0.0,0.0,94,0.00,,SKC,0.00,VWS V14.01,2013-07-24 12:42:00,
2013-07-24 07:47:00,57.6,55.9,30.01,NNW,330,0.0,0.0,94,0.00,,SKC,0.00,VWS V14.01,2013-07-24 12:47:00,
2013-07-24 07:52:00,57.7,56.0,30.01,NNW,330,0.0,0.0,94,0.00,,SKC,0.00,VWS V14.01,2013-07-24 12:52:00,
2013-07-24 07:57:00,57.8,56.1,30.01,NNW,330,0.0,0.0,94,0.00,,SKC,0.00,VWS V14.01,2013-07-24 12:57:00,
2013-07-24 08:02:00,58.1,56.7,30.01,NNW,330,0.0,0.0,95,0.00,,SKC,0.00,VWS V14.01,2013-07-24 13:02:00,
2013-07-24 08:07:00,58.2,56.5,30.01,NNW,330,0.0,0.0,94,0.00,,SKC,0.00,VWS V14.01,2013-07-24 13:07:00,
2013-07-24 08:12:00,58.5,57.1,30.01,NNW,330,0.0,0.0,95,0.00,,SKC,0.00,VWS V14.01,2013-07-24 13:12:00,
2013-07-24 08:17:00,58.7,57.3,30.01,NNW,330,0.0,0.0,95,0.00,,SKC,0.00,VWS V14.01,2013-07-24 13:17:00,
2013-07-24 08:22:00,58.9,56.9,30.01,NNW,330,0.0,0.0,93,0.00,,SKC,0.00,VWS V14.01,2013-07-24 13:22:00,
2013-07-24 08:27:00,59.2,57.2,30.01,NNW,330,0.0,0.0,93,0.00,,SKC,0.00,VWS V14.01,2013-07-24 13:27:00,
2013-07-24 08:32:00,59.5,57.5,30.01,NNW,330,0.0,0.0,93,0.00,,SKC,0.00,VWS V14.01,2013-07-24 13:32:00,
2013-07-24 08:37:00,59.7,57.1,30.01,NNW,330,0.0,0.0,91,0.00,,SKC,0.00,VWS V14.01,2013-07-24 13:37:00,
2013-07-24 08:42:00,60.0,57.4,30.02,NNW,330,0.0,0.0,91,0.00,,SKC,0.00,VWS V14.01,2013-07-24 13:42:00,
2013-07-24 08:47:00,60.2,57.0,30.02,NNW,330,0.0,0.0,89,0.00,,SKC,0.00,VWS V14.01,2013-07-24 13:47:00,
2013-07-24 08:52:00,60.5,57.9,30.02,NNW,330,0.0,0.0,91,0.00,,SKC,0.00,VWS V14.01,2013-07-24 13:52:00,
2013-07-24 08:57:00,60.9,58.6,30.02,NNW,330,0.0,0.0,92,0.00,,SKC,0.00,VWS V14.01,2013-07-24 13:57:00,
2013-07-24 09:02:00,61.1,58.2,30.02,NNW,330,0.0,0.0,90,0.00,,SKC,0.00,VWS V14.01,2013-07-24 14:02:00,
2013-07-24 09:07:00,61.2,57.9,30.02,NNW,330,0.0,0.0,89,0.00,,SKC,0.00,VWS V14.01,2013-07-24 14:07:00,
2013-07-24 09:12:00,61.4,57.8,30.02,NNW,330,0.0,0.0,88,0.00,,SKC,0.00,VWS V14.01,2013-07-24 14:12:00,
2013-07-24 09:17:00,61.6,58.3,30.02,NNW,330,0.0,0.0,89,0.00,,SKC,0.00,VWS V14.01,2013-07-24 14:17:00,
2013-07-24 09:22:00,61.7,58.1,30.02,NNW,330,0.0,0.0,88,0.00,,SKC,0.00,VWS V14.01,2013-07-24 14:22:00,
2013-07-24 09:27:00,62.0,59.0,30.03,NNW,330,0.0,0.0,90,0.00,,SKC,0.00,VWS V14.01,2013-07-24 14:27:00,
2013-07-24 09:32:00,62.0,58.4,30.03,SW,232,0.0,0.0,88,0.00,,SKC,0.00,VWS V14.01,2013-07-24 14:32:00,
2013-07-24 09:37:00,62.2,58.3,30.03,SW,232,0.0,3.0,87,0.00,,SKC,0.00,VWS V14.01,2013-07-24 14:37:00,
2013-07-24 09:42:00,62.3,58.1,30.03,SW,232,0.0,3.0,86,0.00,,SKC,0.00,VWS V14.01,2013-07-24 14:42:00,
2013-07-24 09:47:00,62.5,57.9,30.03,SW,231,1.0,5.0,85,0.00,,SKC,0.00,VWS V14.01,2013-07-24 14:47:00,
2013-07-24 09:52:00,62.7,58.5,30.03,West,272,0.0,5.0,86,0.00,,SKC,0.00,VWS V14.01,2013-07-24 14:52:00,
2013-07-24 09:57:00,62.7,58.1,30.03,West,273,0.0,5.0,85,0.00,,SKC,0.00,VWS V14.01,2013-07-24 14:57:00,
2013-07-24 10:02:00,62.8,57.2,30.02,West,273,0.0,0.0,82,0.00,,SKC,0.00,VWS V14.01,2013-07-24 15:02:00,
2013-07-24 10:07:00,62.9,58.3,30.02,West,273,0.0,0.0,85,0.00,,SKC,0.00,VWS V14.01,2013-07-24 15:07:00,
2013-07-24 10:12:00,63.1,57.5,30.02,West,273,1.0,1.0,82,0.00,,SKC,0.00,VWS V14.01,2013-07-24 15:12:00,
2013-07-24 10:17:00,63.2,57.3,30.02,West,262,2.0,4.0,81,0.00,,SKC,0.00,VWS V14.01,2013-07-24 15:17:00,
2013-07-24 10:22:00,63.5,57.2,30.02,West,262,0.0,4.0,80,0.00,,SKC,0.00,VWS V14.01,2013-07-24 15:22:00,
2013-07-24 10:27:00,63.6,57.0,30.02,WSW,250,0.0,4.0,79,0.00,,SKC,0.00,VWS V14.01,2013-07-24 15:27:00,
2013-07-24 10:32:00,63.6,56.6,30.02,West,259,0.0,2.0,78,0.00,,SKC,0.00,VWS V14.01,2013-07-24 15:32:00,
2013-07-24 10:37:00,63.7,56.7,30.02,West,259,0.0,2.0,78,0.00,,SKC,0.00,VWS V14.01,2013-07-24 15:37:00,
2013-07-24 10:42:00,63.8,56.8,30.01,WSW,258,0.0,2.0,78,0.00,,SKC,0.00,VWS V14.01,2013-07-24 15:42:00,
2013-07-24 10:47:00,64.0,57.7,30.01,West,259,0.0,2.0,80,0.00,,SKC,0.00,VWS V14.01,2013-07-24 15:47:00,
2013-07-24 10:52:00,64.1,58.5,30.01,West,259,0.0,2.0,82,0.00,,SKC,0.00,VWS V14.01,2013-07-24 15:52:00,
2013-07-24 10:57:00,64.1,58.8,30.01,West,259,0.0,2.0,83,0.00,,SKC,0.00,VWS V14.01,2013-07-24 15:57:00,
2013-07-24 11:02:00,64.2,59.3,30.01,WSW,258,0.0,0.0,84,0.00,,SKC,0.00,VWS V14.01,2013-07-24 16:02:00,
2013-07-24 11:07:00,64.1,59.2,30.01,West,259,0.0,0.0,84,0.00,,SKC,0.00,VWS V14.01,2013-07-24 16:07:00,
2013-07-24 11:12:00,64.0,58.4,30.01,WSW,258,0.0,0.0,82,0.00,,SKC,0.00,VWS V14.01,2013-07-24 16:12:00,
2013-07-24 11:17:00,64.0,57.4,30.01,West,259,0.0,0.0,79,0.00,,SKC,0.00,VWS V14.01,2013-07-24 16:17:00,
2013-07-24 11:22:00,64.2,58.3,30.01,West,259,0.0,0.0,81,0.00,,SKC,0.00,VWS V14.01,2013-07-24 16:22:00,
2013-07-24 11:27:00,64.7,58.7,30.01,West,259,0.0,0.0,81,0.00,,SKC,0.00,VWS V14.01,2013-07-24 16:27:00,
2013-07-24 11:32:00,65.2,57.5,30.01,West,259,1.0,1.0,76,0.00,,SKC,0.00,VWS V14.01,2013-07-24 16:32:00,
2013-07-24 11:37:00,65.7,57.9,30.01,WSW,258,0.0,1.0,76,0.00,,SKC,0.00,VWS V14.01,2013-07-24 16:37:00,
2013-07-24 11:42:00,66.1,56.8,30.01,SE,140,0.0,1.0,72,0.00,,SKC,0.00,VWS V14.01,2013-07-24 16:42:00,
2013-07-24 11:47:00,66.3,57.4,30.01,SE,140,0.0,1.0,73,0.00,,SKC,0.00,VWS V14.01,2013-07-24 16:47:00,
2013-07-24 11:52:00,66.4,57.5,30.01,SE,143,0.0,4.0,73,0.00,,SKC,0.00,VWS V14.01,2013-07-24 16:52:00,
2013-07-24 11:57:00,66.5,57.6,30.01,SE,136,0.0,4.0,73,0.00,,SKC,0.00,VWS V14.01,2013-07-24 16:57:00,
2013-07-24 12:02:00,66.6,57.7,30.00,SE,132,2.0,4.0,73,0.00,,SKC,0.00,VWS V14.01,2013-07-24 17:02:00,
2013-07-24 12:07:00,66.6,57.3,30.01,East,88,1.0,5.0,72,0.00,,SKC,0.00,VWS V14.01,2013-07-24 17:07:00,
2013-07-24 12:12:00,66.6,58.1,30.00,ESE,105,2.0,5.0,74,0.00,,SKC,0.00,VWS V14.01,2013-07-24 17:12:00,
2013-07-24 12:17:00,66.7,58.2,30.00,ESE,105,0.0,5.0,74,0.00,,SKC,0.00,VWS V14.01,2013-07-24 17:17:00,
2013-07-24 12:22:00,66.6,58.1,30.00,ESE,108,0.0,5.0,74,0.00,,SKC,0.00,VWS V14.01,2013-07-24 17:22:00,
2013-07-24 12:27:00,66.6,58.8,30.00,ESE,108,2.0,7.0,76,0.00,,SKC,0.00,VWS V14.01,2013-07-24 17:27:00,
2013-07-24 12:32:00,66.8,58.6,30.00,ENE,78,0.0,1.0,75,0.00,,SKC,0.00,VWS V14.01,2013-07-24 17:32:00,
2013-07-24 12:37:00,67.1,58.2,30.00,ENE,78,0.0,3.0,73,0.00,,SKC,0.00,VWS V14.01,2013-07-24 17:37:00,
2013-07-24 12:42:00,67.2,58.6,30.00,ENE,69,0.0,3.0,74,0.00,,SKC,0.00,VWS V14.01,2013-07-24 17:42:00,
2013-07-24 12:47:00,67.2,58.6,30.00,ESE,111,0.0,5.0,74,0.00,,SKC,0.00,VWS V14.01,2013-07-24 17:47:00,
2013-07-24 12:52:00,67.4,58.1,29.99,SE,130,0.0,5.0,72,0.00,,SKC,0.00,VWS V14.01,2013-07-24 17:52:00,
2013-07-24 12:57:00,67.5,57.8,30.00,South,175,0.0,5.0,71,0.00,,SKC,0.00,VWS V14.01,2013-07-24 17:57:00,
2013-07-24 13:02:00,67.9,58.5,30.00,ESE,112,4.0,5.0,72,0.00,,SKC,0.00,VWS V14.01,2013-07-24 18:02:00,
2013-07-24 13:07:00,68.4,58.2,30.00,ESE,117,0.0,6.0,70,0.00,,SKC,0.00,VWS V14.01,2013-07-24 18:07:00,
2013-07-24 13:12:00,68.8,59.0,29.99,ESE,123,0.0,6.0,71,0.00,,SKC,0.00,VWS V14.01,2013-07-24 18:12:00,
2013-07-24 13:17:00,69.1,59.3,29.99,SSW,200,2.0,6.0,71,0.00,,SKC,0.00,VWS V14.01,2013-07-24 18:17:00,
2013-07-24 13:22:00,69.2,58.6,29.99,East,94,2.0,6.0,69,0.00,,SKC,0.00,VWS V14.01,2013-07-24 18:22:00,
2013-07-24 13:27:00,69.5,58.5,29.99,ESE,109,2.0,7.0,68,0.00,,SKC,0.00,VWS V14.01,2013-07-24 18:27:00,
2013-07-24 13:32:00,69.7,58.7,29.99,ESE,114,1.0,4.0,68,0.00,,SKC,0.00,VWS V14.01,2013-07-24 18:32:00,
2013-07-24 13:37:00,70.2,59.2,29.98,ESE,116,0.0,4.0,68,0.00,,SKC,0.00,VWS V14.01,2013-07-24 18:37:00,
2013-07-24 13:42:00,70.9,58.6,29.98,NNE,32,0.0,4.0,65,0.00,,SKC,0.00,VWS V14.01,2013-07-24 18:42:00,
2013-07-24 13:47:00,71.5,58.3,29.98,WSW,246,0.0,4.0,63,0.00,,SKC,0.00,VWS V14.01,2013-07-24 18:47:00,
2013-07-24 13:52:00,72.0,59.2,29.98,SSW,211,0.0,4.0,64,0.00,,SKC,0.00,VWS V14.01,2013-07-24 18:52:00,
2013-07-24 13:57:00,72.5,59.2,29.97,ESE,115,1.0,6.0,63,0.00,,SKC,0.00,VWS V14.01,2013-07-24 18:57:00,
2013-07-24 14:02:00,72.8,58.6,29.97,WSW,253,0.0,3.0,61,0.00,,SKC,0.00,VWS V14.01,2013-07-24 19:02:00,
2013-07-24 14:07:00,72.9,57.8,29.97,East,94,4.0,4.0,59,0.00,,SKC,0.00,VWS V14.01,2013-07-24 19:07:00,
2013-07-24 14:12:00,72.8,58.1,29.97,ESE,118,0.0,4.0,60,0.00,,SKC,0.00,VWS V14.01,2013-07-24 19:12:00,
2013-07-24 14:17:00,72.8,59.0,29.97,ESE,118,0.0,4.0,62,0.00,,SKC,0.00,VWS V14.01,2013-07-24 19:17:00,
2013-07-24 14:22:00,73.3,57.7,29.97,ESE,113,2.0,5.0,58,0.00,,SKC,0.00,VWS V14.01,2013-07-24 19:22:00,
2013-07-24 14:27:00,73.2,58.5,29.97,SE,125,4.0,6.0,60,0.00,,SKC,0.00,VWS V14.01,2013-07-24 19:27:00,
2013-07-24 14:32:00,73.2,58.0,29.96,ESE,121,0.0,4.0,59,0.00,,SKC,0.00,VWS V14.01,2013-07-24 19:32:00,
2013-07-24 14:37:00,73.4,58.2,29.96,ESE,109,0.0,6.0,59,0.00,,SKC,0.00,VWS V14.01,2013-07-24 19:37:00,
2013-07-24 14:42:00,73.5,59.2,29.96,SSE,161,0.0,7.0,61,0.00,,SKC,0.00,VWS V14.01,2013-07-24 19:42:00,
2013-07-24 14:47:00,73.9,58.7,29.96,WSW,257,0.0,7.0,59,0.00,,SKC,0.00,VWS V14.01,2013-07-24 19:47:00,
2013-07-24 14:52:00,73.9,59.6,29.96,NW,314,0.0,7.0,61,0.00,,SKC,0.00,VWS V14.01,2013-07-24 19:52:00,
2013-07-24 14:57:00,74.1,58.9,29.96,NW,304,0.0,7.0,59,0.00,,SKC,0.00,VWS V14.01,2013-07-24 19:57:00,
2013-07-24 15:02:00,74.4,59.2,29.96,WNW,290,1.0,5.0,59,0.00,,SKC,0.00,VWS V14.01,2013-07-24 20:02:00,
2013-07-24 15:07:00,74.5,58.8,29.97,SE,144,2.0,5.0,58,0.00,,SKC,0.00,VWS V14.01,2013-07-24 20:07:00,
2013-07-24 15:12:00,74.4,58.2,29.96,NNE,23,0.0,5.0,57,0.00,,SKC,0.00,VWS V14.01,2013-07-24 20:12:00,
2013-07-24 15:17:00,74.2,58.0,29.96,NNE,23,0.0,5.0,57,0.00,,SKC,0.00,VWS V14.01,2013-07-24 20:17:00,
2013-07-24 15:22:00,73.9,58.2,29.95,East,94,0.0,5.0,58,0.00,,SKC,0.00,VWS V14.01,2013-07-24 20:22:00,
2013-07-24 15:27:00,73.7,59.9,29.96,ESE,117,0.0,5.0,62,0.00,,SKC,0.00,VWS V14.01,2013-07-24 20:27:00,
2013-07-24 15:32:00,73.5,57.8,29.95,ESE,115,0.0,1.0,58,0.00,,SKC,0.00,VWS V14.01,2013-07-24 20:32:00,
2013-07-24 15:37:00,73.7,57.5,29.95,ESE,107,0.0,5.0,57,0.00,,SKC,0.00,VWS V14.01,2013-07-24 20:37:00,
2013-07-24 15:42:00,73.9,57.2,29.95,South,186,0.0,5.0,56,0.00,,SKC,0.00,VWS V14.01,2013-07-24 20:42:00,
2013-07-24 15:47:00,74.2,57.5,29.95,East,91,0.0,5.0,56,0.00,,SKC,0.00,VWS V14.01,2013-07-24 20:47:00,
2013-07-24 15:52:00,74.4,57.7,29.95,East,86,1.0,5.0,56,0.00,,SKC,0.00,VWS V14.01,2013-07-24 20:52:00,
2013-07-24 15:57:00,74.5,57.8,29.95,ESE,107,0.0,5.0,56,0.00,,SKC,0.00,VWS V14.01,2013-07-24 20:57:00,
2013-07-24 16:02:00,74.9,57.7,29.94,ENE,77,0.0,4.0,55,0.00,,SKC,0.00,VWS V14.01,2013-07-24 21:02:00,
2013-07-24 16:07:00,75.4,58.1,29.95,NNW,345,0.0,4.0,55,0.00,,SKC,0.00,VWS V14.01,2013-07-24 21:07:00,
2013-07-24 16:12:00,75.8,56.9,29.94,SSE,166,0.0,5.0,52,0.00,,SKC,0.00,VWS V14.01,2013-07-24 21:12:00,
2013-07-24 16:17:00,76.0,57.1,29.94,WSW,237,0.0,5.0,52,0.00,,SKC,0.00,VWS V14.01,2013-07-24 21:17:00,
2013-07-24 16:22:00,76.2,58.4,29.94,ENE,69,0.0,5.0,54,0.00,,SKC,0.00,VWS V14.01,2013-07-24 21:22:00,
2013-07-24 16:27:00,76.4,58.5,29.94,SE,139,0.0,5.0,54,0.00,,SKC,0.00,VWS V14.01,2013-07-24 21:27:00,
2013-07-24 16:32:00,76.4,57.5,29.94,ESE,118,0.0,4.0,52,0.00,,SKC,0.00,VWS V14.01,2013-07-24 21:32:00,
2013-07-24 16:37:00,75.9,57.0,29.94,ESE,118,0.0,4.0,52,0.00,,SKC,0.00,VWS V14.01,2013-07-24 21:37:00,
2013-07-24 16:42:00,75.3,59.0,29.94,ESE,118,0.0,4.0,57,0.00,,SKC,0.00,VWS V14.01,2013-07-24 21:42:00,
2013-07-24 16:47:00,75.2,58.4,29.94,ESE,118,0.0,4.0,56,0.00,,SKC,0.00,VWS V14.01,2013-07-24 21:47:00,
2013-07-24 16:52:00,75.2,57.9,29.94,South,180,0.0,4.0,55,0.00,,SKC,0.00,VWS V14.01,2013-07-24 21:52:00,
2013-07-24 16:57:00,75.1,58.3,29.94,SW,227,0.0,4.0,56,0.00,,SKC,0.00,VWS V14.01,2013-07-24 21:57:00,
2013-07-24 17:02:00,75.0,59.2,29.94,East,94,1.0,1.0,58,0.00,,SKC,0.00,VWS V14.01,2013-07-24 22:02:00,
2013-07-24 17:07:00,75.0,58.3,29.94,ESE,104,5.0,5.0,56,0.00,,SKC,0.00,VWS V14.01,2013-07-24 22:07:00,
2013-07-24 17:12:00,75.2,58.4,29.94,ESE,112,4.0,6.0,56,0.00,,SKC,0.00,VWS V14.01,2013-07-24 22:12:00,
2013-07-24 17:17:00,75.1,57.3,29.93,ESE,107,0.0,6.0,54,0.00,,SKC,0.00,VWS V14.01,2013-07-24 22:17:00,
2013-07-24 17:22:00,75.2,58.9,29.93,ESE,103,0.0,6.0,57,0.00,,SKC,0.00,VWS V14.01,2013-07-24 22:22:00,
2013-07-24 17:27:00,75.4,57.6,29.93,WSW,257,0.0,6.0,54,0.00,,SKC,0.00,VWS V14.01,2013-07-24 22:27:00,
2013-07-24 17:32:00,75.7,58.9,29.93,WSW,252,2.0,2.0,56,0.00,,SKC,0.00,VWS V14.01,2013-07-24 22:32:00,
2013-07-24 17:37:00,76.2,59.4,29.93,WSW,248,0.0,3.0,56,0.00,,SKC,0.00,VWS V14.01,2013-07-24 22:37:00,
2013-07-24 17:42:00,76.6,58.7,29.93,ESE,113,0.0,4.0,54,0.00,,SKC,0.00,VWS V14.01,2013-07-24 22:42:00,
2013-07-24 17:47:00,76.6,58.7,29.93,SE,146,0.0,5.0,54,0.00,,SKC,0.00,VWS V14.01,2013-07-24 22:47:00,
2013-07-24 17:52:00,76.1,58.3,29.93,ESE,122,0.0,5.0,54,0.00,,SKC,0.00,VWS V14.01,2013-07-24 22:52:00,
2013-07-24 17:57:00,75.8,58.5,29.93,SSW,201,2.0,5.0,55,0.00,,SKC,0.00,VWS V14.01,2013-07-24 22:57:00,
2013-07-24 18:02:00,76.1,58.8,29.93,WSW,248,0.0,6.0,55,0.00,,SKC,0.00,VWS V14.01,2013-07-24 23:02:00,
2013-07-24 18:07:00,76.3,58.5,29.93,ESE,103,0.0,6.0,54,0.00,,SKC,0.00,VWS V14.01,2013-07-24 23:07:00,
2013-07-24 18:12:00,76.0,58.2,29.93,ESE,103,0.0,6.0,54,0.00,,SKC,0.00,VWS V14.01,2013-07-24 23:12:00,
2013-07-24 18:17:00,75.6,58.3,29.93,ESE,103,0.0,6.0,55,0.00,,SKC,0.00,VWS V14.01,2013-07-24 23:17:00,
2013-07-24 18:22:00,75.3,58.0,29.92,ESE,103,2.0,6.0,55,0.00,,SKC,0.00,VWS V14.01,2013-07-24 23:22:00,
2013-07-24 18:27:00,75.3,58.5,29.92,ESE,103,0.0,6.0,56,0.00,,SKC,0.00,VWS V14.01,2013-07-24 23:27:00,
2013-07-24 18:32:00,75.3,58.5,29.92,East,85,0.0,4.0,56,0.00,,SKC,0.00,VWS V14.01,2013-07-24 23:32:00,
2013-07-24 18:37:00,74.9,57.7,29.92,East,91,1.0,4.0,55,0.00,,SKC,0.00,VWS V14.01,2013-07-24 23:37:00,
2013-07-24 18:42:00,74.8,59.0,29.92,East,91,0.0,4.0,58,0.00,,SKC,0.00,VWS V14.01,2013-07-24 23:42:00,
2013-07-24 18:47:00,74.9,58.7,29.92,East,89,0.0,4.0,57,0.00,,SKC,0.00,VWS V14.01,2013-07-24 23:47:00,
2013-07-24 18:52:00,74.7,59.9,29.92,ESE,104,0.0,5.0,60,0.00,,SKC,0.00,VWS V14.01,2013-07-24 23:52:00,
2013-07-24 18:57:00,74.6,58.9,29.92,ESE,112,0.0,5.0,58,0.00,,SKC,0.00,VWS V14.01,2013-07-24 23:57:00,
2013-07-24 19:02:00,74.4,59.6,29.92,ESE,117,0.0,4.0,60,0.00,,SKC,0.00,VWS V14.01,2013-07-25 00:02:00,
2013-07-24 19:07:00,74.4,58.7,29.91,ESE,107,0.0,5.0,58,0.00,,SKC,0.00,VWS V14.01,2013-07-25 00:07:00,
2013-07-24 19:12:00,74.3,58.6,29.91,ESE,107,0.0,5.0,58,0.00,,SKC,0.00,VWS V14.01,2013-07-25 00:12:00,
2013-07-24 19:17:00,74.5,59.7,29.91,ESE,109,0.0,5.0,60,0.00,,SKC,0.00,VWS V14.01,2013-07-25 00:17:00,
2013-07-24 19:22:00,74.6,59.3,29.91,ESE,109,0.0,5.0,59,0.00,,SKC,0.00,VWS V14.01,2013-07-25 00:22:00,
2013-07-24 19:27:00,74.7,59.0,29.91,ESE,109,0.0,5.0,58,0.00,,SKC,0.00,VWS V14.01,2013-07-25 00:27:00,
2013-07-24 19:32:00,74.7,58.5,29.91,ESE,109,0.0,0.0,57,0.00,,SKC,0.00,VWS V14.01,2013-07-25 00:32:00,
2013-07-24 19:37:00,74.8,59.5,29.91,ESE,109,0.0,0.0,59,0.00,,SKC,0.00,VWS V14.01,2013-07-25 00:37:00,
2013-07-24 19:42:00,74.7,59.9,29.91,ESE,109,0.0,0.0,60,0.00,,SKC,0.00,VWS V14.01,2013-07-25 00:42:00,
2013-07-24 19:47:00,74.4,59.6,29.91,ESE,109,0.0,0.0,60,0.00,,SKC,0.00,VWS V14.01,2013-07-25 00:47:00,
2013-07-24 19:52:00,74.0,60.2,29.91,ESE,109,0.0,0.0,62,0.00,,SKC,0.00,VWS V14.01,2013-07-25 00:52:00,
2013-07-24 19:57:00,73.5,60.2,29.91,ESE,109,0.0,0.0,63,0.00,,SKC,0.00,VWS V14.01,2013-07-25 00:57:00,
2013-07-24 20:02:00,73.0,60.1,29.91,ESE,109,0.0,0.0,64,0.00,,SKC,0.00,VWS V14.01,2013-07-25 01:02:00,
2013-07-24 20:07:00,72.4,60.4,29.91,ESE,109,0.0,0.0,66,0.00,,SKC,0.00,VWS V14.01,2013-07-25 01:07:00,
2013-07-24 20:12:00,71.6,59.7,29.91,ESE,109,0.0,0.0,66,0.00,,SKC,0.00,VWS V14.01,2013-07-25 01:12:00,
2013-07-24 20:17:00,70.8,59.7,29.89,ESE,109,0.0,0.0,68,0.00,,SKC,0.00,VWS V14.01,2013-07-25 01:17:00,
2013-07-24 20:22:00,70.2,60.0,29.90,ESE,109,0.0,0.0,70,0.00,,SKC,0.00,VWS V14.01,2013-07-25 01:22:00,
2013-07-24 20:27:00,69.5,60.1,29.90,ESE,109,0.0,0.0,72,0.00,,SKC,0.00,VWS V14.01,2013-07-25 01:27:00,
2013-07-24 20:32:00,69.0,60.0,29.90,ESE,109,0.0,0.0,73,0.00,,SKC,0.00,VWS V14.01,2013-07-25 01:32:00,
2013-07-24 20:37:00,68.5,59.5,29.90,ESE,109,0.0,0.0,73,0.00,,SKC,0.00,VWS V14.01,2013-07-25 01:37:00,
2013-07-24 20:42:00,68.0,59.8,29.90,ESE,109,0.0,0.0,75,0.00,,SKC,0.00,VWS V14.01,2013-07-25 01:42:00,
2013-07-24 20:47:00,67.6,59.4,29.90,ESE,109,0.0,0.0,75,0.00,,SKC,0.00,VWS V14.01,2013-07-25 01:47:00,
2013-07-24 20:52:00,67.2,59.8,29.90,ESE,109,0.0,0.0,77,0.00,,SKC,0.00,VWS V14.01,2013-07-25 01:52:00,
2013-07-24 20:57:00,66.7,59.3,29.90,ESE,109,0.0,0.0,77,0.00,,SKC,0.00,VWS V14.01,2013-07-25 01:57:00,
2013-07-24 21:02:00,66.3,59.2,29.90,ESE,109,0.0,0.0,78,0.00,,SKC,0.00,VWS V14.01,2013-07-25 02:02:00,
2013-07-24 21:07:00,65.7,59.0,29.91,ESE,109,0.0,0.0,79,0.00,,SKC,0.00,VWS V14.01,2013-07-25 02:07:00,
2013-07-24 21:12:00,65.1,59.1,29.91,ESE,109,0.0,0.0,81,0.00,,SKC,0.00,VWS V14.01,2013-07-25 02:12:00,
2013-07-24 21:17:00,64.5,58.9,29.91,ESE,109,0.0,0.0,82,0.00,,SKC,0.00,VWS V14.01,2013-07-25 02:17:00,
2013-07-24 21:22:00,64.1,58.8,29.91,ESE,109,0.0,0.0,83,0.00,,SKC,0.00,VWS V14.01,2013-07-25 02:22:00,
2013-07-24 21:27:00,63.7,58.8,29.91,ESE,109,0.0,0.0,84,0.00,,SKC,0.00,VWS V14.01,2013-07-25 02:27:00,
2013-07-24 21:32:00,63.3,58.7,29.91,ESE,109,0.0,0.0,85,0.00,,SKC,0.00,VWS V14.01,2013-07-25 02:32:00,
2013-07-24 21:37:00,63.0,58.4,29.91,ESE,109,0.0,0.0,85,0.00,,SKC,0.00,VWS V14.01,2013-07-25 02:37:00,
2013-07-24 21:42:00,62.7,58.5,29.91,ESE,109,0.0,0.0,86,0.00,,SKC,0.00,VWS V14.01,2013-07-25 02:42:00,
2013-07-24 21:47:00,62.5,58.6,29.91,ESE,109,0.0,0.0,87,0.00,,SKC,0.00,VWS V14.01,2013-07-25 02:47:00,
2013-07-24 21:52:00,62.3,58.4,29.91,ESE,109,0.0,0.0,87,0.00,,SKC,0.00,VWS V14.01,2013-07-25 02:52:00,
2013-07-24 21:57:00,62.3,58.4,29.91,ESE,109,0.0,0.0,87,0.00,,SKC,0.00,VWS V14.01,2013-07-25 02:57:00,
2013-07-24 22:02:00,62.1,58.2,29.91,ESE,109,0.0,0.0,87,0.00,,SKC,0.00,VWS V14.01,2013-07-25 03:02:00,
2013-07-24 22:03:00,62.1,58.2,29.91,ESE,109,0.0,0.0,87,0.00,,SKC,0.00,VWS V14.01,2013-07-25 03:03:00,
2013-07-24 22:08:00,62.0,58.1,29.91,ESE,109,0.0,0.0,87,0.00,,SKC,0.00,VWS V14.01,2013-07-25 03:08:00,
2013-07-24 22:13:00,61.8,58.2,29.91,ESE,109,0.0,0.0,88,0.00,,SKC,0.00,VWS V14.01,2013-07-25 03:13:00,
2013-07-24 22:18:00,61.8,58.2,29.92,ESE,109,0.0,0.0,88,0.00,,SKC,0.00,VWS V14.01,2013-07-25 03:18:00,
2013-07-24 22:23:00,61.7,58.1,29.92,ESE,109,0.0,0.0,88,0.00,,SKC,0.00,VWS V14.01,2013-07-25 03:23:00,
2013-07-24 22:28:00,61.7,58.1,29.91,ESE,109,0.0,0.0,88,0.00,,SKC,0.00,VWS V14.01,2013-07-25 03:28:00,
2013-07-24 22:33:00,61.8,58.2,29.91,ESE,109,0.0,1.0,88,0.00,,SKC,0.00,VWS V14.01,2013-07-25 03:33:00,
2013-07-24 22:38:00,62.3,58.7,29.91,ESE,109,0.0,2.0,88,0.00,,SKC,0.00,VWS V14.01,2013-07-25 03:38:00,
2013-07-24 22:43:00,62.8,58.9,29.91,ESE,109,0.0,2.0,87,0.00,,SKC,0.00,VWS V14.01,2013-07-25 03:43:00,
2013-07-24 22:48:00,63.1,59.2,29.91,ESE,109,1.0,2.0,87,0.00,,SKC,0.00,VWS V14.01,2013-07-25 03:48:00,
2013-07-24 22:53:00,63.3,59.0,29.91,ESE,109,0.0,4.0,86,0.00,,SKC,0.00,VWS V14.01,2013-07-25 03:53:00,
2013-07-24 22:58:00,63.5,59.2,29.91,ESE,109,0.0,4.0,86,0.00,,SKC,0.00,VWS V14.01,2013-07-25 03:58:00,
2013-07-24 23:01:00,63.6,59.3,29.91,ESE,109,0.0,0.0,86,0.00,,SKC,0.00,VWS V14.01,2013-07-25 04:01:00,
2013-07-24 23:06:00,63.8,59.2,29.90,ESE,109,0.0,4.0,85,0.00,,SKC,0.00,VWS V14.01,2013-07-25 04:06:00,
2013-07-24 23:11:00,64.0,59.4,29.90,ESE,109,0.0,4.0,85,0.00,,SKC,0.00,VWS V14.01,2013-07-25 04:11:00,
2013-07-24 23:17:00,64.1,59.5,29.90,ESE,109,0.0,4.0,85,0.00,,SKC,0.00,VWS V14.01,2013-07-25 04:17:00,
2013-07-24 23:22:00,64.1,59.5,29.90,ESE,109,0.0,4.0,85,0.00,,SKC,0.00,VWS V14.01,2013-07-25 04:22:00,
2013-07-24 23:27:00,64.2,59.6,29.90,ESE,109,0.0,4.0,85,0.00,,SKC,0.00,VWS V14.01,2013-07-25 04:27:00,
2013-07-24 23:32:00,64.1,59.5,29.91,ESE,109,0.0,0.0,85,0.00,,SKC,0.00,VWS V14.01,2013-07-25 04:32:00,
2013-07-24 23:37:00,64.0,59.4,29.91,ESE,109,0.0,0.0,85,0.00,,SKC,0.00,VWS V14.01,2013-07-25 04:37:00,
2013-07-24 23:42:00,63.9,59.3,29.91,ESE,109,0.0,1.0,85,0.00,,SKC,0.00,VWS V14.01,2013-07-25 04:42:00,
2013-07-24 23:47:00,63.8,59.2,29.91,ESE,109,0.0,1.0,85,0.00,,SKC,0.00,VWS V14.01,2013-07-25 04:47:00,
2013-07-24 23:52:00,63.6,59.0,29.91,ESE,109,0.0,1.0,85,0.00,,SKC,0.00,VWS V14.01,2013-07-25 04:52:00,
2013-07-24 23:57:00,63.5,59.2,29.91,ESE,109,0.0,1.0,86,0.00,,SKC,0.00,VWS V14.01,2013-07-25 04:57:00,